Etusivu
METAR-TAF:

METAR-TAF

Lentoasemat :

Litchfield Municipal Airport

Litchfield, Minnesota, Yhdysvallat

Leveyspiiri: 45-05-50N, Pituuspiiri: 094-30-26W, korkeus merenpinnasta: 348 m

Tämänhetkinen sää

Tämä raportti tehtiin 20 minuuttia sitten, kello 18.35 UTC
Tuuli 4 kn lännestä/lounaasta
Lämpötila 4°C
Kosteus 75%
Ilmanpaine 1023 hPa
Näkyvyys: 16.1 km
selkeää

METAR: KLJF 191835Z AUTO 24004KT 10SM CLR 04/00 A3021 RMK AO2

Aika: 13:55 (18:55 UTC)


TAF: puuttuu

Säähavainnot ja -ennusteet yli 4000 lentoasemalta (METAR- ja TAF-raportit).

Käytössä olevat sääasemat on merkitty karttaan keltaisilla ja punaisilla pisteillä.

Aseta hiiri pisteen päälle nähdäksesi sääaseman nimen.

Klikkaa sitten nähdäksesi säähavainnot ja -ennusteet.

Kartan vaihtaminen: klikkaa mustalla rastilla varustettuja vihreitä pisteitä, niin voit zoomata sisään; viivalla varustettua vihreää pistettä, niin voit zoomata ulos tai vihreitä nuolia, niin pääset viereisille kartoille.


METAR-TAF: